Location: Courçay
(47.2523°N, 0.8761°E)
Time: 07:08:25
(UTC+00:00)

Cosmos 407 Rocket - Pass Details

Date: 18 November 2025
Orbit: 740 x 780 km, 74.0° (Epoch: 10 December)

Event Time Altitude Azimuth Distance (km) Brightness Sun altitude
Rises 18:04:03 0° 218° (SW) 3,205 7.5 -17.8°
Reaches altitude 10° 18:06:31 10° 225° (SW) 2,278 6.7 -18.2°
Maximum altitude 18:11:28 46° 298° (WNW) 1,001 4.4 -19.1°
Drops below altitude 10° 18:16:25 10° 12° (NNE) 2,271 5.7 -19.9°
Enters shadow 18:17:07 - 14° (NNE) 2,528 6.0 -20.0°
